Home > Weather > Greenville > Past weeks

Flag for U.S.A. Weather for the Past 2 Weeks in Greenville, South Carolina, U.S.A.

Now
36 °F

Clear.


Feels Like: 28 °F
Forecast: 31 / 48 °F
Wind: 13 mph from Northeast

Location: Greenville Downtown Airport

Current Time: Feb 12, 2016 at 1:47:27 AM

Latest Report: Feb 12, 2016 at 12:53 AM


Visibility: 10 mi

Pressure: 30.21 "Hg

Humidity: 48%

Dew point: 18 °F

Location of GreenvilleLocation

Historic Weather in Greenville — Graph

°F

Greenville Temperature Yesterday

Maximum temperature yesterday: 50 °F (at 3:53 PM)
Minimum temperature yesterday: 23 °F (at 5:53 AM)
Average temperature yesterday: 35 °F

High & Low Weather Summary for the Past Weeks

 TemperatureHumidityPressure
High67 °F (Feb 1, 3:53 PM)97% (Feb 2, 6:53 AM)30.44 "Hg (Feb 2, 6:53 AM)
Low23 °F (Feb 10, 5:53 AM)13% (Jan 29, 3:53 PM)29.67 "Hg (Feb 8, 2:53 PM)
Average45 °F56%30.02 "Hg
* Reported Jan 27 11:53 PM — Feb 11 11:53 PM, Greenville, Weather by CustomWeather, © 2016

Note: Actual official high and low records may vary slightly from our data, if they occured in-between our weather recording intervals... More about our weather records

Advertising

Greenville Weather History for the Previous 24 Hours

 ConditionsComfort  
Time TempWeatherWind HumidityBarometerVisibility
11:53 PM
Thu, Feb 11
35 °FClear.8 mph54%30.22 "Hg10 mi
10:53 PM37 °FClear.3 mph48%30.22 "Hg10 mi
9:53 PM37 °FClear.3 mph50%30.22 "Hg10 mi
8:53 PM41 °FClear.9 mph41%30.21 "Hg10 mi
7:53 PM42 °FClear.8 mph41%30.21 "Hg10 mi
6:53 PM43 °FClear.7 mph43%30.19 "Hg10 mi
5:53 PM48 °FSunny.5 mph36%30.16 "Hg10 mi
3:53 PM50 °FSunny.9 mph32%30.11 "Hg10 mi
2:53 PM49 °FSunny.8 mph33%30.12 "Hg10 mi
1:53 PM45 °FPassing clouds.10 mph37%30.14 "Hg10 mi
12:53 PM45 °FPassing clouds.12 mph35%30.17 "Hg10 mi
11:53 AM39 °FPartly sunny.3 mph43%30.21 "Hg10 mi
10:53 AM36 °FOvercast.10 mph46%30.22 "Hg10 mi
9:53 AM32 °FSunny.No wind52%30.23 "Hg10 mi
8:53 AM29 °FSunny.3 mph56%30.20 "Hg10 mi
7:53 AM24 °FSunny.No wind65%30.19 "Hg10 mi
6:53 AM24 °FPassing clouds.No wind62%30.18 "Hg10 mi
5:53 AM23 °FPassing clouds.3 mph65%30.16 "Hg10 mi
4:53 AM25 °FClear.No wind58%30.15 "Hg10 mi
3:53 AM26 °FClear.No wind52%30.13 "Hg10 mi
2:53 AM26 °FClear.3 mph52%30.13 "Hg10 mi
1:53 AM27 °FClear.No wind37%30.12 "Hg10 mi
Weather by CustomWeather, © 2016

See weather overviewHow to use our weather pages